This is the latest recevied weather packets stored in our database for station/object IZ8FMH-11. If no packets are shown the sender has not sent any weather packets the latest 10 day(s).
| Time | Temp. | Humidity | Pressure | Rain* | Wind** | Luminosity | Snow |
|---|---|---|---|---|---|---|---|
| 1788255301 | 29.44° C | 58% | 1014.1 hPa | - | - | - | - |
| 1788253501 | 29.44° C | 59% | 1014 hPa | - | - | - | - |
| 1788251701 | 28.89° C | 57% | 1014.1 hPa | - | - | - | - |
| 1788249901 | 28.33° C | 60% | 1013.9 hPa | - | - | - | - |
| 1788248101 | 27.78° C | 61% | 1013.9 hPa | - | - | - | - |
| 1788246301 | 27.22° C | 58% | 1013.8 hPa | - | - | - | - |
| 1788244501 | 26.67° C | 56% | 1013.7 hPa | - | - | - | - |
| 1788242701 | 26.67° C | 55% | 1013.6 hPa | - | - | - | - |
| 1788240901 | 26.67° C | 55% | 1013.5 hPa | - | - | - | - |
| 1788237301 | 26.67° C | 55% | 1013.5 hPa | - | - | - | - |
| 1788235501 | 26.67° C | 56% | 1013.3 hPa | - | - | - | - |
| 1788233701 | 26.67° C | 56% | 1013.3 hPa | - | - | - | - |
| 1788228300 | 27.22° C | 58% | 1013.5 hPa | - | - | - | - |
| 1788226500 | 27.22° C | 57% | 1013.5 hPa | - | - | - | - |
| 1788224700 | 27.22° C | 55% | 1013.6 hPa | - | - | - | - |
| 1788222900 | 27.22° C | 55% | 1013.6 hPa | - | - | - | - |
| 1788221101 | 27.22° C | 55% | 1013.5 hPa | - | - | - | - |
| 1788219301 | 27.78° C | 54% | 1013.5 hPa | - | - | - | - |
| 1788217501 | 27.78° C | 54% | 1013.3 hPa | - | - | - | - |
| 1788215701 | 27.78° C | 51% | 1013.4 hPa | - | - | - | - |
| 1788213901 | 28.33° C | 50% | 1013.3 hPa | - | - | - | - |
| 1788212101 | 28.33° C | 50% | 1013.4 hPa | - | - | - | - |
| 1788210301 | 28.89° C | 51% | 1013.1 hPa | - | - | - | - |
| 1788208501 | 28.89° C | 50% | 1013.1 hPa | - | - | - | - |
| 1788206701 | 28.89° C | 50% | 1012.8 hPa | - | - | - | - |
* Rain since midnight (hover to see other rain measurements)
** Current wind speed in m/s (hover to see current wind gust speed)